NIMBUS 2 DEB, 28207

Orbit data source: Space-Track

NIMBUS 2 DEB, 28207 is space debris in SSO originally from a launch on Sun, 15 May 1966 UTC launched from the Air Force Western Test Range (AFWTR). Debris objects in space refer to the collection of defunct objects orbiting the Earth. Examples of debris include non-operational satellites, rocket bodies, and fragments generated from explosions, collisions, or faulty payload assembly.

Loading next visibility...
Identifier
28207, 1966-040V
Orbit
SSO
Country
Flag of USUS
Related business
Manufacturer
Unknown
Mission
Spacecraft
Bus & Motor
Unknown
Mass
Unknown
Launch date (UTC)
1966-05-15 (60 years ago)
Launch vehicle
Unknown
Launch site
Air Force Western Test Range (AFWTR)
Object type
Payload
Rocket body
Debris
Shape & HBR
Unknown shape, 0.1 m
Radar Cross Section
Small (<0.1 m²)

Expand to show TLE details & history
Last TLE update: 7 hours ago

TLE from 7 hours ago
0 NIMBUS 2 DEB
1 28207U 66040V   26036.08722708  .00003826  00000-0  40800-2 0  9999
2 28207 100.2875  87.1445 0048252 112.2814 276.3026 13.74192251594967
Epoch: 2026-02-05T02:05Z
TLE epoch observation values (Epoch: 2026-02-05T02:05:36.419Z)
Latitude
27.58611°
Longitude
-84.91508°
Altitude
984.101 km
Speed
7.364 km/s
True Right ascension
05h 26m 55s
True Declination
27° 26' 58"
Sunlit
Object was in full shadow at epoch
Visualization orbit readout
Latitude
Unknown
Longitude
Unknown
Altitude
Unknown
Speed
Unknown
Apparent Right ascension
Unknown
Apparent Declination
Unknown
Sunlit
N/A
Visualization observer readout
Local Sidereal Time
11:33:55
Azimuth
Unknown
Elevation
Unknown
Doppler factor
Unknown
Orbital elements
Apogee altitude
1,017.373 km
Perigee altitude
946.346 km
Semi-major axis
7,359.996 km
Eccentricity
0.00483
Inclination
100.2875°
RAAN
87.1445°
Arg. of periapsis
112.2814°
True anomaly
275.75266°
Mean anomaly
276.3026°
Eccentric anomaly
276.02766°
Mean motion
3.43737 °/min
Orbital period
104.73 mins
BSTAR
0.00408
Loading maneuver chart data...
Computing Atmospheric mass density...
Loading historical data...
Loading historical data...
Loading historical data...
Loading historical data...
Loading historical data...
Loading historical data...
Loading historical data...

Documentation

Showing up to 5 results
|